Location: Prairie State College
(41.5244°N, 87.6382°W)
Time: 19:37:32
(UTC-06:00)

ISS - All Passes

Search period start: 21 November 2014 00:00
Search period end: 01 December 2014 00:00
Orbit: 408 x 417 km, 51.6° (Epoch: 21 November)

Date Brightness Start Highest point End Pass type
(mag) Time Alt. Az. Time Alt. Az. Time Alt. Az.
21 Nov - 01:02:29 10° SW 01:05:42 53° SE 01:08:55 10° ENE night (unlit)
21 Nov - 02:39:42 10° W 02:42:31 26° NNW 02:45:21 10° NE night (unlit)
21 Nov - 04:18:09 10° NW 04:20:02 14° N 04:21:55 10° NNE visible
21 Nov - 05:54:59 10° NW 05:57:37 21° NNE 06:00:14 10° ENE visible
21 Nov - 07:31:17 10° WNW 07:34:36 81° SW 07:37:54 10° SE daylight
22 Nov - 00:13:18 10° SSW 00:16:11 29° SE 00:19:05 10° ENE night (unlit)
22 Nov - 01:49:41 10° W 01:52:46 36° NNW 01:55:52 10° NE night (unlit)
22 Nov - 03:28:06 10° NW 03:30:08 15° N 03:32:10 10° NNE visible
22 Nov - 05:05:27 10° NNW 05:07:46 17° NNE 05:10:04 10° ENE visible
22 Nov - 06:41:41 10° NW 06:44:57 58° NNE 06:48:13 10° ESE daylight
22 Nov - 08:19:07 10° W 08:21:18 17° SW 08:23:29 10° S daylight
22 Nov - 23:24:32 10° S 23:26:41 16° SE 23:28:50 10° E night (unlit)
23 Nov - 00:59:47 10° WSW 01:03:01 58° NNW 01:06:17 10° NE night (unlit)
23 Nov - 02:37:54 10° WNW 02:40:12 17° NNW 02:42:30 10° NNE night (unlit)
23 Nov - 04:15:48 10° NNW 04:17:50 15° N 04:19:52 10° NE visible
23 Nov - 05:52:06 10° NW 05:55:12 36° NNE 05:58:17 10° E visible
23 Nov - 07:28:52 10° WNW 07:31:47 29° SW 07:34:41 10° SSE daylight
24 Nov - 00:10:00 10° SW 00:13:17 81° SE 00:16:35 10° ENE night (unlit)
24 Nov - 01:47:39 10° WNW 01:50:15 21° NNW 01:52:52 10° NE night (unlit)
24 Nov - 03:25:56 10° NNW 03:27:49 14° N 03:29:42 10° NE visible
24 Nov - 05:02:29 10° NW 05:05:19 26° NNE 05:08:09 10° E visible
24 Nov - 06:38:54 10° WNW 06:42:08 53° SW 06:45:22 10° SE daylight
24 Nov - 23:20:26 10° SSW 23:23:34 43° SE 23:26:43 10° ENE night (unlit)
25 Nov - 00:57:23 10° W 01:00:18 28° NNW 01:03:13 10° NE night (unlit)
25 Nov - 02:35:50 10° NW 02:37:45 14° N 02:39:40 10° NNE night (unlit)
25 Nov - 04:12:49 10° NNW 04:15:20 20° NNE 04:17:51 10° ENE visible
25 Nov - 05:49:04 10° NW 05:52:23 84° NE 05:55:41 10° SE visible
25 Nov - 07:27:32 10° WSW 07:28:33 11° SW 07:29:34 10° SSW daylight
25 Nov - 22:31:09 10° S 22:33:51 24° SE 22:36:34 10° E night (unlit)
26 Nov - 00:07:12 10° WSW 00:10:20 42° NNW 00:13:30 10° NE night (unlit)
26 Nov - 01:45:32 10° NW 01:47:38 16° N 01:49:45 10° NNE night (unlit)
26 Nov - 03:23:03 10° NNW 03:25:15 16° N 03:27:28 10° NE visible
26 Nov - 04:59:16 10° NW 05:02:30 49° NNE 05:05:42 10° ESE visible
26 Nov - 06:36:25 10° W 06:38:54 20° SW 06:41:24 10° S daylight
26 Nov - 21:42:27 10° SSE 21:44:09 14° SE 21:45:51 10° E night (unlit)
26 Nov - 23:17:07 10° WSW 23:20:24 70° NNW 23:23:41 10° NE night (unlit)
27 Nov - 00:55:06 10° WNW 00:57:30 18° NNW 00:59:54 10° NNE night (unlit)
27 Nov - 02:33:08 10° NNW 02:35:06 15° N 02:37:03 10° NE night (unlit)
27 Nov - 04:09:29 10° NW 04:12:30 32° NNE 04:15:30 10° E visible
27 Nov - 05:46:05 10° WNW 05:49:09 35° SW 05:52:11 10° SSE visible
27 Nov - 22:27:12 10° SW 22:30:28 65° SE 22:33:44 10° ENE night (unlit)
28 Nov - 00:04:37 10° WNW 00:07:20 23° NNW 00:10:04 10° NE night (unlit)
28 Nov - 01:42:59 10° NW 01:44:51 14° N 01:46:43 10° NE night (unlit)
28 Nov - 03:19:39 10° NW 03:22:23 23° NNE 03:25:06 10° ENE visible
28 Nov - 04:55:59 10° WNW 04:59:15 66° SW 05:02:32 10° SE visible
28 Nov - 21:37:31 10° SSW 21:40:32 35° SE 21:43:34 10° ENE night (unlit)
28 Nov - 23:14:10 10° W 23:17:10 32° NNW 23:20:11 10° NE night (unlit)
29 Nov - 00:52:36 10° NW 00:54:34 15° N 00:56:31 10° NNE night (unlit)
29 Nov - 02:29:45 10° NNW 02:32:09 18° NNE 02:34:33 10° ENE night (unlit)
29 Nov - 04:05:57 10° NW 04:09:15 69° NNE 04:12:32 10° ESE visible
29 Nov - 05:43:44 10° W 05:45:30 14° SW 05:47:15 10° SSW visible
29 Nov - 20:48:11 10° S 20:50:38 19° SE 20:53:05 10° E night (unlit)
29 Nov - 22:23:48 10° WSW 22:27:01 50° NNW 22:30:15 10° NE night (unlit)
30 Nov - 00:02:02 10° NW 00:04:14 17° NNW 00:06:26 10° NNE night (unlit)
30 Nov - 01:39:44 10° NNW 01:41:50 16° N 01:43:56 10° NE night (unlit)
30 Nov - 03:15:58 10° NW 03:19:07 41° NNE 03:22:16 10° E night (unlit)
30 Nov - 04:52:52 10° WNW 04:55:37 24° SW 04:58:21 10° S visible
30 Nov - 19:59:53 10° SE 20:00:44 11° SE 20:01:34 10° ESE night (unlit)
30 Nov - 21:33:35 10° SW 21:36:52 86° NW 21:40:11 10° NE night (unlit)
30 Nov - 23:11:21 10° WNW 23:13:53 20° NNW 23:16:24 10° NNE night (unlit)
